Observations for Trim Patrick St
| Time | AQI | Temp °C | Hum % | Pres Pa | CO μg/m³ | H₂S μg/m³ | NO μg/m³ | NO₂ μg/m³ | O₃ μg/m³ | SO₂ μg/m³ | PM1 μg/m³ | PM2.5 μg/m³ | PM10 μg/m³ |
|---|---|---|---|---|---|---|---|---|---|---|---|---|---|
| Saturday 8 August 2026 | |||||||||||||
| 10:59 | 1 | 25 | 47 | 69,090 | 0 | 0 | 1.33 | 11.16 | 69.2 | 6.26 | 2.86 | 8.16 | 8.97 |
| 10:58 | 1 | 24.9 | 47 | 69,100 | 0 | 0 | 1.64 | 10.33 | 51.72 | 6.19 | 2 | 6.61 | 7.27 |
| 10:57 | 1 | 24.9 | 47 | 69,114 | 0 | 0 | 1.72 | 10.41 | 62.68 | 6.66 | 3.71 | 8.12 | 8.93 |
| 10:56 | 1 | 24.9 | 47 | 69,098 | 0 | 0 | 1.76 | 11.2 | 70.78 | 6.75 | 2 | 6.58 | 7.24 |
| 10:55 | 1 | 24.9 | 47 | 69,106 | 0 | 0 | 1.7 | 11.96 | 70.31 | 6.49 | 2 | 6.6 | 7.26 |
| 10:54 | 1 | 24.9 | 47 | 69,086 | 0 | 0 | 1.6 | 11.34 | 61.91 | 6.47 | 2.86 | 8.14 | 8.95 |
| 10:53 | 1 | 24.9 | 48 | 69,088 | 0 | 0 | 1.74 | 10.69 | 60.81 | 6.08 | 2 | 7.32 | 8.05 |
| 10:52 | 1 | 24.9 | 48 | 69,094 | 0 | 0 | 1.39 | 11.48 | 67.44 | 6.51 | 2 | 7.34 | 8.07 |
| 10:51 | 1 | 24.8 | 47 | 69,098 | 0 | 0 | 1.49 | 11.45 | 67.55 | 6.55 | 2.86 | 8.12 | 8.93 |
| 10:50 | 1 | 24.8 | 48 | 69,104 | 0 | 0 | 1.72 | 11.66 | 66.08 | 6.55 | 2.86 | 7.3 | 8.03 |
| 10:49 | 1 | 24.8 | 48 | 69,114 | 0 | 0 | 1.83 | 10.75 | 59.47 | 6.52 | 3.71 | 8.07 | 8.87 |
| 10:48 | 1 | 24.8 | 48 | 69,130 | 0 | 1.67 | 1.68 | 11.68 | 70.65 | 7.36 | 2.86 | 8.08 | 8.89 |
| 10:45 | 1 | 24.8 | 48 | 69,155 | 0 | 0 | 1.8 | 11.6 | 60.33 | 7.04 | 2.86 | 7.31 | 8.04 |
| 10:43 | 1 | 24.7 | 48 | 69,149 | 0 | 0 | 1.95 | 11.54 | 62.74 | 6.57 | 2 | 7.29 | 8.02 |
| 10:42 | 1 | 24.7 | 48 | 69,143 | 0 | 0 | 1.79 | 11.83 | 62.29 | 6.32 | 2 | 7.34 | 8.07 |
| 10:41 | 1 | 24.7 | 48 | 69,138 | 0 | 0 | 1.78 | 11.87 | 67.71 | 6.42 | 2 | 6.57 | 7.23 |
| 10:38 | 1 | 24.7 | 48 | 69,116 | 0 | 0 | 1.81 | 11.56 | 71.18 | 6.11 | 2 | 6.57 | 7.23 |
| 10:37 | 1 | 24.7 | 48 | 69,102 | 0 | 0 | 1.85 | 10.48 | 67.4 | 6.71 | 3.71 | 8.1 | 8.91 |
| 10:36 | 1 | 24.7 | 47 | 69,086 | 0 | 0 | 1.88 | 10.67 | 69.34 | 6.36 | 2.86 | 7.37 | 8.11 |
| 10:35 | 1 | 24.7 | 47 | 69,092 | 0 | 0 | 1.73 | 10.44 | 65.7 | 6.66 | 2.86 | 8.14 | 8.96 |